Location: Cactus School
(34.5700°N, 118.0931°W)
Time: 03:54:36
(UTC-08:00)

Tiangong 2 - Visible Passes

Search period start: 18 November 2017 00:00
Search period end: 28 November 2017 00:00
Orbit: 386 x 391 km, 42.8° (Epoch: 18 November)

Date Brightness Start Highest point End Pass type
(mag) Time Alt. Az. Time Alt. Az. Time Alt. Az.
23 Nov 4.1 06:06:46 10° S 06:09:05 19° SE 06:11:25 10° E visible
25 Nov 2.5 05:46:21 10° SW 05:49:22 39° SE 05:52:22 10° ENE visible
26 Nov 3.6 04:49:42 15° S 04:51:16 20° SE 04:53:43 10° E visible
27 Nov 1.1 05:27:36 20° WSW 05:29:41 85° SSE 05:32:53 10° ENE visible
